Home   Weather   Ajaccio   Past weeks

Flag for France Past Weather in Ajaccio, Corsica, France — Yesterday and Last 2 Weeks

Now
63 °F

Sunny.


Feels Like: 63 °F
Forecast: 47 / 62 °F
Wind: 3 mph from South

Location: Ajaccio Airport

Current Time: Dec 9, 2016 at 4:47:53 pm

Latest Report: Dec 9, 2016 at 4:00 pm


Visibility: 10 mi

Pressure: 30.45 "Hg

Humidity: 64%

Dew Point: 50 °F

Location of AjaccioLocation

Past Weather in Ajaccio — Graph

°F

Ajaccio Temperature Yesterday

Maximum temperature yesterday: 64 °F (at 12:00 pm)
Minimum temperature yesterday: 43 °F (at 5:00 am)
Average temperature yesterday: 51 °F

High & Low Weather Summary for the Past Weeks

 TemperatureHumidityPressure
High72 °F (Dec 5, 1:00 pm)100% (Nov 25, 2:00 am)30.57 "Hg (Nov 25, 2:00 am)
Low37 °F (Nov 30, 3:00 am)16% (Nov 29, 12:00 pm)29.74 "Hg (Nov 24, 6:30 pm)
Average52 °F74%30.16 "Hg
* Reported Nov 24 3:00 pm — Dec 9 3:30 pm, Ajaccio, Weather by CustomWeather, © 2016

Note: Actual official high and low records may vary slightly from our data, if they occured in-between our weather recording intervals... More about our weather records

Advertising

Ajaccio Weather History for the Previous 24 Hours

Scroll right to see more
 ConditionsComfort  
Time TempWeatherWind HumidityBarometerVisibility
3:30 pm
Fri, Dec 9
63 °FSunny.6 mph59%30.45 "Hg10 mi
2:30 pm63 °FSunny.6 mph64%30.45 "Hg10 mi
2:00 pm63 °FSunny.5 mph56%30.48 "Hg10 mi
1:41 pm63 °FPassing clouds.6 mph59%30.48 "HgN/A
1:00 pm63 °FPassing clouds.3 mph45%30.48 "HgN/A
12:30 pm63 °FPassing clouds.3 mph39%30.48 "HgN/A
12:00 pm63 °FSunny.2 mph39%30.51 "Hg10 mi
11:30 am59 °FSunny.2 mph51%30.51 "Hg10 mi
10:30 am52 °FSunny.5 mph67%30.51 "Hg10 mi
10:00 am50 °FSunny.5 mph67%30.51 "Hg10 mi
9:30 am46 °FSunny.6 mph76%30.51 "Hg10 mi
9:00 am45 °FPassing clouds.7 mph76%30.51 "HgN/A
8:30 am41 °FSunny.8 mph81%30.51 "Hg10 mi
8:00 am41 °FSunny.8 mph81%30.51 "Hg10 mi
7:30 am41 °FClear.7 mph81%30.51 "Hg10 mi
6:30 am41 °FClear.8 mph81%30.48 "Hg10 mi
5:30 am41 °FClear.7 mph81%30.51 "Hg10 mi
5:00 am41 °FPassing clouds.6 mph87%30.51 "HgN/A
4:30 am41 °FPassing clouds.8 mph87%30.51 "HgN/A
4:00 am43 °FClear.7 mph81%30.51 "Hg10 mi
3:30 am43 °FClear.8 mph81%30.51 "Hg10 mi
3:00 am43 °FClear.7 mph81%30.54 "Hg10 mi
2:30 am43 °FClear.7 mph87%30.54 "Hg10 mi
2:00 am43 °FClear.8 mph87%30.54 "Hg10 mi
1:30 am43 °FClear.8 mph87%30.54 "Hg10 mi
1:00 am41 °FClear.8 mph87%30.54 "Hg10 mi
12:30 am43 °FClear.7 mph87%30.54 "Hg10 mi
12:00 am45 °FClear.8 mph81%30.54 "Hg10 mi
11:30 pm
Thu, Dec 8
45 °FClear.8 mph81%30.54 "Hg10 mi
11:00 pm46 °FClear.8 mph76%30.54 "Hg10 mi
10:30 pm46 °FClear.6 mph82%30.57 "Hg10 mi
10:00 pm45 °FClear.7 mph87%30.57 "Hg10 mi
9:30 pm46 °FClear.7 mph82%30.57 "Hg10 mi
9:00 pm46 °FClear.8 mph82%30.57 "Hg10 mi
8:30 pm46 °FClear.8 mph82%30.57 "Hg10 mi
8:00 pm48 °FClear.7 mph82%30.57 "Hg10 mi
7:30 pm50 °FClear.6 mph76%30.54 "Hg10 mi
7:00 pm52 °FClear.5 mph77%30.54 "Hg10 mi
6:30 pm52 °FClear.6 mph77%30.54 "Hg10 mi
6:00 pm54 °FClear.7 mph82%30.54 "Hg10 mi
5:30 pm54 °FClear.5 mph82%30.54 "Hg10 mi
4:30 pm61 °FSunny.6 mph68%30.54 "Hg10 mi
4:00 pm63 °FSunny.6 mph64%30.51 "Hg10 mi
Weather by CustomWeather, © 2016

See weather overviewHow to use our weather pages